Location: Alphaba - Cockrum - Ingrams Mill Volunteer Fire Department Station 2
(34.7915°N, 89.7598°W)
Time: 09:04:26
(UTC+00:00)

Okean 1-7 Rocket - Pass Details

Date: 11 December 2025
Orbit: 610 x 643 km, 82.5° (Epoch: 24 January)

Event Time Altitude Azimuth Distance (km) Brightness Sun altitude
Rises 23:17:28 0° 358° (N) 2,889 6.8 -6.2°
Reaches altitude 10° 23:19:45 10° 4° (N) 1,977 5.9 -6.6°
Maximum altitude 23:24:02 53° 81° (E) 749 3.7 -7.4°
Drops below altitude 10° 23:28:15 10° 159° (SSE) 1,956 6.2 -8.2°
Sets 23:30:30 0° 164° (SSE) 2,856 7.1 -8.7°
